Caro, MI

2:18 AM EDT on April 26, 2018 (GMT -0400)
Caro

Weather History for KCFS - January, 2012

Change the Weather History Date:

Tuesday, January 17, 2012

  Actual Average (KMBS) Record (KMBS)
Temperature  
Mean Temperature 30 °F -  
Max Temperature 35 °F 24 °F 44 °F (2015)
Min Temperature 26 °F 11 °F -6 °F (1997)
Degree Days  
Heating Degree Days 34    
Moisture  
Dew Point 32 °F    
Average Humidity 97    
Maximum Humidity 100    
Minimum Humidity 74    
Precipitation  
Precipitation 0.00 in - - ()
Sea Level Pressure  
Sea Level Pressure 29.61 in    
Wind  
Wind Speed 6 mph (North)    
Max Wind Speed 23 mph    
Max Gust Speed 33 mph    
Visibility 3 miles    
Events Fog , Rain , Snow    
Averages and records for this station are not official NWS values.
T = Trace of Precipitation, MM = Missing Value Source: NWS Daily Summary

Daily Weather History Graph

Daily Weather History Graph

Search for Another Location

Airport or City:

Astronomy

Jan. 17, 2012 Rise Set
Actual Time 8:02 AM EST 5:25 PM EST
Civil Twilight 7:31 AM EST 5:56 PM EST
Nautical Twilight 6:55 AM EST 6:31 PM EST
Astronomical Twilight 6:21 AM EST 7:06 PM EST
Moon 2:19 AM EST (1/17) 12:18 PM EST (1/17)
Length of Visible Light 10h 25m
Length of Day
9h 22m
Waning Crescent, 35% of the Moon is Illuminated
Jan 17
Waning Crescent
Jan 23
New
Jan 30
First Quarter
Feb 7
Full
Feb 14
Last Quarter

Hourly Weather History & Observations

Time (EST) Temp. Windchill Dew Point Humidity Pressure Visibility Wind Dir Wind Speed Gust Speed Precip Events Conditions
12:15 AM 35.6 °F - 35.6 °F 100% 29.75 in 0.2 mi Calm Calm - N/A Fog Fog
12:34 AM 35.6 °F 32.8 °F 35.6 °F 100% 29.74 in 0.5 mi ENE 3.5 mph - N/A Fog Fog
12:55 AM 35.6 °F - 35.6 °F 100% 29.74 in 0.2 mi Calm Calm - N/A Fog Fog
1:15 AM 35.6 °F - 35.6 °F 100% 29.73 in 0.5 mi Calm Calm - N/A Fog Fog
1:34 AM 35.6 °F - 35.6 °F 100% 29.74 in 0.2 mi Calm Calm - N/A Fog Fog
1:55 AM 35.6 °F - 35.6 °F 100% 29.73 in 0.2 mi Calm Calm - N/A Fog Fog
2:14 AM 35.6 °F - 35.6 °F 100% 29.71 in 0.2 mi Calm Calm - N/A Fog Fog
2:35 AM 35.6 °F - 35.6 °F 100% 29.71 in 0.5 mi Calm Calm - N/A Fog Fog
2:55 AM 35.6 °F 32.8 °F 35.6 °F 100% 29.71 in 0.2 mi NE 3.5 mph - N/A Fog Fog
3:15 AM 35.6 °F - 35.6 °F 100% 29.70 in 0.2 mi Calm Calm - N/A Fog Fog
3:35 AM 35.6 °F 32.8 °F 35.6 °F 100% 29.69 in 0.2 mi NE 3.5 mph - N/A   Light Drizzle
3:55 AM 35.6 °F 32.8 °F 35.6 °F 100% 29.67 in 0.5 mi ENE 3.5 mph - N/A   Drizzle
4:14 AM 35.6 °F - 35.6 °F 100% 29.67 in 0.5 mi Calm Calm - N/A Rain Rain
4:35 AM 35.6 °F 30.7 °F 35.6 °F 100% 29.66 in 0.8 mi NE 5.8 mph - N/A   Heavy Drizzle
5:14 AM 35.6 °F 31.7 °F 35.6 °F 100% 29.64 in 1.0 mi NE 4.6 mph - N/A   Overcast
5:35 AM 35.6 °F 29.9 °F 35.6 °F 100% 29.64 in 1.2 mi NNE 6.9 mph - N/A   Overcast
5:55 AM 33.8 °F 27.7 °F 33.8 °F 100% 29.62 in 1.2 mi NE 6.9 mph - N/A   Overcast
6:14 AM 33.8 °F 28.6 °F 33.8 °F 100% 29.61 in 1.0 mi ENE 5.8 mph - N/A   Overcast
6:35 AM 35.6 °F 31.7 °F 35.6 °F 100% 29.61 in 2.0 mi NE 4.6 mph - N/A   Light Drizzle
7:15 AM 33.8 °F 30.8 °F 33.8 °F 100% 29.61 in 1.8 mi North 3.5 mph - N/A   Light Drizzle
7:35 AM 33.8 °F 29.6 °F 33.8 °F 100% 29.60 in 1.2 mi NE 4.6 mph - N/A Rain Heavy Rain
7:55 AM 33.8 °F 29.6 °F 33.8 °F 100% 29.59 in 2.5 mi NE 4.6 mph - N/A   Drizzle
8:15 AM 33.8 °F 28.6 °F 33.8 °F 100% 29.57 in 2.0 mi NNE 5.8 mph - N/A   Overcast
8:35 AM 33.8 °F 28.6 °F 33.8 °F 100% 29.56 in 1.8 mi NE 5.8 mph - N/A   Overcast
8:54 AM 33.8 °F 29.6 °F 33.8 °F 100% 29.56 in 1.0 mi NNE 4.6 mph - N/A   Overcast
9:15 AM 33.8 °F 29.6 °F 33.8 °F 100% 29.55 in 1.2 mi NNE 4.6 mph - N/A Rain Light Rain
9:35 AM 33.8 °F 27.0 °F 33.8 °F 100% 29.53 in 1.2 mi NE 8.1 mph - N/A Rain Light Rain
10:15 AM 35.6 °F 29.9 °F 35.6 °F 100% 29.50 in 1.8 mi North 6.9 mph - N/A   Drizzle
10:34 AM 35.6 °F 29.9 °F 35.6 °F 100% 29.48 in 1.5 mi NNE 6.9 mph - N/A   Light Drizzle
10:55 AM 35.6 °F 30.7 °F 35.6 °F 100% 29.47 in 1.2 mi NNE 5.8 mph - N/A   Light Drizzle
11:14 AM 35.6 °F 30.7 °F 35.6 °F 100% 29.46 in 1.0 mi North 5.8 mph - N/A   Overcast
11:35 AM 33.8 °F 27.7 °F 33.8 °F 100% 29.43 in 0.8 mi NNE 6.9 mph - N/A   Light Drizzle
11:55 AM 35.6 °F 29.2 °F 35.6 °F 100% 29.40 in 1.0 mi NE 8.1 mph - N/A Rain Light Rain
12:14 PM 35.6 °F 31.7 °F 35.6 °F 100% 29.39 in 1.2 mi NE 4.6 mph - N/A Rain Light Rain
12:35 PM 35.6 °F 28.6 °F 35.6 °F 100% 29.37 in 1.5 mi North 9.2 mph - N/A Rain Light Rain
12:55 PM 35.6 °F 30.7 °F 35.6 °F 100% 29.35 in 1.2 mi NNE 5.8 mph - N/A Rain Light Rain
1:15 PM 35.6 °F 29.2 °F 35.6 °F 100% 29.36 in 1.5 mi NNW 8.1 mph - N/A Rain Rain
1:35 PM 35.6 °F 28.0 °F 35.6 °F 100% 29.33 in 2.5 mi North 10.4 mph - N/A Rain Rain
1:55 PM 35.6 °F 25.2 °F 35.6 °F 100% 29.36 in 1.5 mi NW 18.4 mph 23.0 mph N/A Rain Light Rain
2:35 PM 32.0 °F 19.2 °F 32.0 °F 100% 29.39 in 1.5 mi NNW 23.0 mph 28.8 mph N/A Snow Light Snow
3:15 PM 32.0 °F 19.8 °F 32.0 °F 100% 29.43 in 0.8 mi NNW 20.7 mph 31.1 mph N/A Snow Light Snow
3:35 PM 32.0 °F 19.8 °F 32.0 °F 100% 29.46 in 1.2 mi NNW 20.7 mph 33.4 mph N/A Snow Light Snow
3:54 PM 32.0 °F 20.1 °F 32.0 °F 100% 29.50 in 1.5 mi NNW 19.6 mph 27.6 mph N/A Snow Light Snow
4:15 PM 32.0 °F 19.8 °F 32.0 °F 100% 29.53 in 1.2 mi NNW 20.7 mph 26.5 mph N/A Snow Light Snow
4:35 PM 32.0 °F 19.8 °F 32.0 °F 100% 29.57 in 1.2 mi NNW 20.7 mph 31.1 mph N/A Snow Light Snow
4:55 PM 32.0 °F 19.8 °F 30.2 °F 93% 29.59 in 0.8 mi NNW 20.7 mph 27.6 mph N/A Snow Light Snow
5:15 PM 30.2 °F 18.5 °F 30.2 °F 100% 29.61 in 0.5 mi NW 17.3 mph 23.0 mph N/A Snow Snow
5:34 PM 30.2 °F 17.4 °F 30.2 °F 100% 29.63 in 1.0 mi NNW 20.7 mph 28.8 mph N/A Snow Light Snow
5:55 PM 30.2 °F 18.5 °F 30.2 °F 100% 29.65 in 3.0 mi NW 17.3 mph 26.5 mph N/A Snow Light Snow
6:14 PM 30.2 °F 18.5 °F 28.4 °F 93% 29.67 in 7.0 mi NW 17.3 mph 23.0 mph N/A   Overcast
6:35 PM 30.2 °F 18.1 °F 26.6 °F 86% 29.70 in 10.0 mi NW 18.4 mph 26.5 mph N/A   Overcast
6:55 PM 28.4 °F 17.5 °F 26.6 °F 93% 29.72 in 10.0 mi NW 13.8 mph 19.6 mph N/A   Overcast
7:14 PM 28.4 °F 16.2 °F 24.8 °F 86% 29.74 in 10.0 mi NW 17.3 mph - N/A   Overcast
7:35 PM 28.4 °F 17.5 °F 24.8 °F 86% 29.75 in 10.0 mi NW 13.8 mph 19.6 mph N/A   Overcast
7:55 PM 28.4 °F 14.7 °F 24.8 °F 86% 29.77 in 10.0 mi NW 21.9 mph 27.6 mph N/A   Overcast
8:15 PM 28.4 °F 16.6 °F 23.0 °F 80% 29.80 in 10.0 mi NW 16.1 mph 27.6 mph N/A   Overcast
8:35 PM 26.6 °F 12.7 °F 21.2 °F 80% 29.82 in 10.0 mi NW 20.7 mph 31.1 mph N/A   Overcast
8:55 PM 26.6 °F 12.4 °F 21.2 °F 80% 29.84 in 4.0 mi NW 21.9 mph 29.9 mph N/A Snow Light Snow
9:14 PM 26.6 °F 14.7 °F 19.4 °F 74% 29.85 in 7.0 mi NW 15.0 mph 23.0 mph N/A Snow Light Snow
9:35 PM 26.6 °F 16.8 °F 21.2 °F 80% 29.87 in 10.0 mi WNW 10.4 mph 19.6 mph N/A Snow Light Snow
9:55 PM 26.6 °F 13.8 °F 19.4 °F 74% 29.89 in 10.0 mi WNW 17.3 mph 24.2 mph N/A   Overcast
10:15 PM 24.8 °F 10.7 °F 19.4 °F 80% 29.90 in 10.0 mi WNW 19.6 mph 26.5 mph N/A   Overcast
10:35 PM 23.0 °F 10.1 °F 15.8 °F 74% 29.91 in 10.0 mi WNW 15.0 mph 24.2 mph N/A   Mostly Cloudy
10:55 PM 23.0 °F 11.1 °F 15.8 °F 74% 29.92 in 10.0 mi WNW 12.7 mph 16.1 mph N/A   Scattered Clouds
11:15 PM 23.0 °F 10.1 °F 14.0 °F 68% 29.94 in 10.0 mi WNW 15.0 mph 21.9 mph N/A   Clear
11:35 PM 23.0 °F 11.7 °F 15.8 °F 74% 29.95 in 10.0 mi WNW 11.5 mph 23.0 mph N/A   Mostly Cloudy
11:55 PM 23.0 °F 10.6 °F 14.0 °F 68% 29.97 in 10.0 mi NW 13.8 mph - N/A   Overcast